[[{"header":{"parameterUnit":"m.s-1","parameterCategory":1,"la1":30.2991,"la2":30.254,"lo1":-89.0895,"lo2":-89.0444,"dy":0.0017,"dx":0.0017,"nx":28,"ny":28,"refTime":"2024-11-26T03:00:00:Z","depth":0,"parameterNumber":2,"parameterNumberName":"U-component_of_WINDS"},"data":[0,0,0,0,0,0,0,0,0,0,0,0,0,0,0,0,0,0,0,0,0,0,0,0,0,0,0,0,0,0,0,0,0,0,0,0,0,0,0,0,0,0,0,0,0,0,0,0,0,0,0,0,0,0,0,0,0,0,1.0212,1.0212,0,1.0176,1.0175,1.0175,1.0183,1.0183,1.0184,1.0185,1.0146,1.0145,1.0143,0,0,0,0,0,0,0,0,0,0,0,0,0,1.0289,1.0287,1.0212,1.0212,1.0211,1.0176,1.0175,1.0175,1.0182,1.0183,1.0184,1.0185,1.0147,1.0145,1.0143,0,0,0,0,0,0,0,0,0,0,0,0,0,1.0254,1.0287,1.0212,1.0211,1.021,1.0176,1.0175,1.0175,1.0182,1.0183,1.0184,1.0185,1.0148,1.0145,1.0143,1.0107,0,0,1.0135,1.0134,0,0,0,0,0,0,0,0,1.0256,1.0251,1.0211,1.0211,1.021,1.0185,1.0188,1.0152,1.0182,1.0193,1.0185,1.0186,1.0158,1.0155,1.0146,1.0105,1.0104,1.0135,1.0134,1.0132,1.0132,0,0,0,0,0,0,0,1.0258,1.0253,1.0198,1.0211,1.021,1.0212,1.0208,1.0181,1.017,1.0192,1.0193,1.0188,1.0158,1.0148,1.0145,1.0103,1.0135,1.0133,1.0131,1.013,1.0033,1.0032,0,0,0,0,0,0,1.0261,1.0255,1.0199,1.0197,1.0236,1.021,1.0206,1.0192,1.0171,1.0168,1.0187,1.0189,1.0152,1.0148,1.0144,1.0101,1.0132,1.013,1.0129,1.0034,1.0032,1.0031,0,0,0,0,0,0,1.0263,1.0256,1.02,1.0226,1.0219,1.0207,1.0192,1.0191,1.0181,1.0167,1.0165,1.0179,1.0153,1.0147,1.0116,1.01,1.0129,1.0127,1.0035,1.0033,1.0032,1.0015,0,0,0,0,0,0,1.0265,1.0257,1.0243,1.0225,1.0217,1.0173,1.0191,1.0189,1.0176,1.0178,1.0159,1.0157,1.0153,1.012,1.0114,1.0097,1.0125,1.0036,1.0034,1.0032,1.0017,1.0013,1.001,0,0,0,0,0,1.0268,1.0239,1.0242,1.0235,1.02,1.0172,1.0168,1.0164,1.0175,1.0161,1.0153,1.0157,1.0103,1.0117,1.011,1.0092,1.0037,1.0035,1.0032,1.0019,1.0014,1.001,0,0,0,0,0,0,1.0254,1.0237,1.024,1.0205,1.019,1.0174,1.0156,1.0159,1.0141,1.0143,1.0139,1.0135,1.0104,1.0095,1.0111,1.0057,1.0072,1.0068,1.0064,1.0059,1.0055,1.0058,1.0123,0,0,0,0,0,1.0247,1.0227,1.0213,1.0183,1.0176,1.0167,1.0155,1.0154,1.0138,1.0132,1.0121,1.0106,1.0085,1.0072,1.0052,1.0016,1.0013,1.0001,0.9997,0.9994,0.9991,0.9972,0.9967,1.0023,1.0023,1.0023,0,0,1.0232,1.022,1.0207,1.018,1.0168,1.0147,1.0162,1.0138,1.0123,1.0128,1.0099,1.009,1.0073,1.004,1.0025,1.0032,0.9975,0.9991,0.9989,0.9987,0.9969,0.9964,0.9959,1.0021,1.0022,1.0022,0,0,1.0195,1.0183,1.0158,1.0146,1.0129,1.0124,1.0118,1.0101,1.0096,1.0067,1.0071,1.0052,1.0017,1.0005,0.9994,0.9954,0.9957,0.9947,0.9928,0.991,0.9905,0.9901,0.9887,0.9882,0.9944,0.9944,0.9944,0,1.0178,1.0146,1.0144,1.0121,1.0109,1.0114,1.0089,1.0078,1.0054,1.0046,1.0055,1.0011,1.0,0.9964,0.9955,0.9946,0.9939,0.9949,0.9906,0.9902,0.9898,0.9885,0.988,0.9943,0.9943,0.9943,0.9943,0,1.0127,1.0105,1.0087,1.0065,1.0052,1.0027,1.0022,1.0008,1.0008,1.0003,0.9973,0.996,0.9938,0.993,0.993,0.9895,0.99,0.9907,0.9922,0.9892,0.9879,0.9874,0.9941,0.9942,0.9942,0.9942,0,0,1.0078,1.0057,1.0051,1.0041,1.0024,1.0007,0.9983,0.9962,0.9951,0.9935,0.9916,0.9887,0.9894,0.9881,0.988,0.9864,0.9834,0.9874,0.9873,0.9867,0.9795,0.979,0.9784,0.9837,0.9836,0.9835,0.9797,0,1.0039,0.9997,0.9996,0.9958,0.9938,0.9944,0.9923,0.991,0.9904,0.9887,0.9881,0.986,0.9871,0.9864,0.9848,0.9841,0.9819,0.9844,0.9818,0.9818,0.9822,0.9777,0.9771,0.9735,0.9792,0.9791,0.979,0,0.9987,0.9971,0.9931,0.9918,0.9909,0.9891,0.9872,0.9856,0.9841,0.9839,0.9826,0.9827,0.9804,0.982,0.9787,0.9804,0.9793,0.9788,0.9787,0.9784,0.9802,0.9773,0.9724,0.9719,0.9783,0.9783,0.9784,0,0.9955,0.9924,0.9896,0.9888,0.9872,0.9859,0.9851,0.9838,0.9826,0.981,0.9803,0.9784,0.9774,0.976,0.9756,0.9768,0.9724,0.974,0.9721,0.9721,0.9711,0.9712,0.9659,0.9705,0.9705,0.9705,0.9705,0,0.9911,0.9887,0.9882,0.9865,0.9838,0.9837,0.9811,0.9804,0.9793,0.9775,0.9779,0.9762,0.9759,0.9741,0.9738,0.9712,0.9708,0.9705,0.9704,0.9704,0.9705,0.9697,0.9699,0.9703,0.9704,0.9704,0.9704,0,0.9871,0.9867,0.9837,0.9825,0.9821,0.9802,0.9791,0.9775,0.9771,0.9748,0.9743,0.9735,0.9715,0.9711,0.9687,0.9685,0.9654,0.9656,0.9659,0.9659,0.9641,0.9643,0.9582,0.9574,0.9625,0.9624,0.9624,0,0.9843,0.9824,0.981,0.9799,0.9791,0.9772,0.9761,0.976,0.9747,0.9731,0.9717,0.9698,0.9682,0.9649,0.9642,0.9624,0.9625,0.9605,0.9622,0.9623,0.9625,0.9626,0.9625,0.9602,0.9601,0.9601,0.96,0,0.9793,0.9793,0.9776,0.9759,0.9745,0.9732,0.9719,0.9709,0.9706,0.9692,0.9672,0.966,0.9636,0.9617,0.9599,0.9592,0.9595,0.9595,0.959,0.959,0.9592,0.9591,0.965,0.9597,0.9597,0.9597,0.9597,0.9598,0.9758,0.9743,0.9731,0.9712,0.9703,0.9691,0.9676,0.967,0.9654,0.9634,0.9635,0.9613,0.9601,0.9577,0.9569,0.9552,0.9558,0.955,0.9548,0.9546,0.9545,0.9596,0.9549,0.9549,0.9549,0.9549,0.9549,0,0.9709,0.9702,0.9686,0.9668,0.9654,0.966,0.9647,0.9634,0.9615,0.9604,0.9589,0.9566,0.9548,0.954,0.9522,0.951,0.9511,0.9505,0.9506,0.9504,0.954,0.9547,0.9505,0.9505,0.9505,0.9505,0.9505,0.9505,0.9682,0.9656,0.9654,0.9624,0.9618,0.9597,0.9589,0.9578,0.9569,0.9544,0.9529,0.9525,0.9515,0.9496,0.948,0.9478,0.9472,0.9465,0.9464,0.9497,0.9502,0.9506,0.9512,0.9463,0.9463,0.9429,0.9429,0.9428]},{"header":{"parameterUnit":"m.s-1","parameterCategory":1,"la1":30.2991,"la2":30.254,"lo1":-89.0895,"lo2":-89.0444,"dy":0.0017,"dx":0.0017,"nx":28,"ny":28,"refTime":"2024-11-26T03:00:00:Z","depth":0,"parameterNumber":3,"parameterNumberName":"V-component_of_WINDS"},"data":[0,0,0,0,0,0,0,0,0,0,0,0,0,0,0,0,0,0,0,0,0,0,0,0,0,0,0,0,0,0,0,0,0,0,0,0,0,0,0,0,0,0,0,0,0,0,0,0,0,0,0,0,0,0,0,0,0,0,1.7052,1.7052,0,1.7041,1.7041,1.7041,1.7077,1.7078,1.708,1.7081,1.7064,1.7063,1.7062,0,0,0,0,0,0,0,0,0,0,0,0,0,1.7102,1.7101,1.7052,1.7052,1.7052,1.7041,1.7041,1.7041,1.7077,1.7079,1.708,1.7081,1.7065,1.7063,1.7061,0,0,0,0,0,0,0,0,0,0,0,0,0,1.7084,1.7101,1.7052,1.7069,1.707,1.7041,1.7041,1.7041,1.7077,1.7079,1.708,1.7082,1.7066,1.7063,1.7061,1.7014,0,0,1.7054,1.7053,0,0,0,0,0,0,0,0,1.7085,1.7083,1.7067,1.7068,1.7069,1.7062,1.7053,1.7031,1.7076,1.7074,1.7081,1.7083,1.7062,1.706,1.7054,1.7013,1.7012,1.7054,1.7053,1.7052,1.7051,0,0,0,0,0,0,0,1.7087,1.7083,1.7048,1.7066,1.7068,1.7076,1.7075,1.7049,1.7059,1.7075,1.7077,1.7076,1.7063,1.7056,1.7054,1.7012,1.7054,1.7052,1.7051,1.705,1.6932,1.6931,0,0,0,0,0,0,1.7086,1.7084,1.7048,1.7047,1.7082,1.7074,1.7073,1.7063,1.7059,1.706,1.7074,1.7077,1.7059,1.7057,1.7054,1.6999,1.7052,1.705,1.7049,1.6934,1.6932,1.693,0,0,0,0,0,0,1.7087,1.7083,1.7049,1.7066,1.7063,1.7071,1.7059,1.7062,1.7055,1.7059,1.7061,1.7066,1.7061,1.7057,1.7024,1.6998,1.7049,1.7047,1.6936,1.6933,1.6931,1.6887,0,0,0,0,0,0,1.7088,1.7083,1.7065,1.7066,1.7062,1.702,1.7058,1.706,1.7052,1.7056,1.7051,1.7052,1.7062,1.7027,1.7022,1.6996,1.7045,1.6939,1.6935,1.6932,1.6891,1.6883,1.6877,0,0,0,0,0,1.709,1.7052,1.7064,1.706,1.704,1.7018,1.7016,1.7029,1.7049,1.7032,1.7035,1.7052,1.7002,1.7023,1.7018,1.6991,1.694,1.6936,1.6932,1.6894,1.6885,1.6877,0,0,0,0,0,0,1.7047,1.7053,1.7066,1.7028,1.7022,1.7024,1.7002,1.7018,1.7006,1.701,1.7025,1.7024,1.6988,1.6986,1.701,1.6946,1.6975,1.6969,1.6948,1.6939,1.6932,1.6933,1.7043,0,0,0,0,0,1.7033,1.7016,1.7021,1.6987,1.6984,1.6994,1.6984,1.6995,1.6989,1.6987,1.6987,1.698,1.6963,1.6951,1.6935,1.6891,1.6891,1.687,1.6863,1.6858,1.6852,1.6829,1.682,1.6917,1.6917,1.6917,0,0,1.7004,1.7005,1.6993,1.6978,1.6975,1.6956,1.6991,1.6969,1.6955,1.6983,1.6953,1.6953,1.6946,1.6907,1.689,1.6905,1.6826,1.6852,1.6848,1.6846,1.6824,1.6815,1.6807,1.6914,1.6914,1.6915,0,0,1.6941,1.694,1.6912,1.6909,1.6905,1.6912,1.6905,1.6905,1.6907,1.6877,1.6898,1.6881,1.6851,1.6845,1.6838,1.6775,1.6791,1.677,1.6732,1.671,1.6702,1.6696,1.6673,1.6665,1.6765,1.6765,1.6765,0,1.6904,1.6878,1.6895,1.6872,1.6865,1.6892,1.6863,1.6859,1.6849,1.6843,1.686,1.6824,1.6821,1.6782,1.6767,1.676,1.6753,1.677,1.6702,1.6696,1.669,1.6669,1.666,1.6762,1.6762,1.6763,1.6763,0,1.6833,1.6814,1.6792,1.6784,1.6774,1.6748,1.6761,1.6749,1.6761,1.6766,1.6735,1.6733,1.6718,1.671,1.672,1.6672,1.6681,1.67,1.673,1.6678,1.6658,1.665,1.6758,1.6759,1.676,1.6761,0,0,1.674,1.6744,1.6736,1.6733,1.6732,1.6717,1.6692,1.6679,1.6669,1.6661,1.6641,1.6616,1.6634,1.6626,1.6636,1.6617,1.6567,1.6638,1.6638,1.6625,1.6514,1.65,1.649,1.6578,1.6577,1.6576,1.6515,0,1.6678,1.6638,1.6653,1.6611,1.6594,1.662,1.6599,1.6595,1.66,1.6585,1.6589,1.6571,1.6596,1.6592,1.6574,1.6577,1.6545,1.6582,1.6558,1.6557,1.6559,1.648,1.6464,1.6407,1.6507,1.6506,1.6505,0,1.66,1.6592,1.6549,1.6552,1.6545,1.6526,1.6516,1.6502,1.6498,1.6503,1.6495,1.651,1.6485,1.6516,1.6482,1.6506,1.6498,1.6498,1.6496,1.6494,1.6527,1.6475,1.6389,1.638,1.6493,1.6494,1.6495,0,1.6537,1.6515,1.6487,1.6483,1.6486,1.6472,1.6472,1.6471,1.6462,1.6453,1.6448,1.6435,1.6428,1.6418,1.6429,1.645,1.6393,1.6424,1.6395,1.6395,1.6381,1.6382,1.6292,1.6377,1.6377,1.6377,1.6377,0,1.6465,1.6437,1.6458,1.6441,1.6411,1.6429,1.6398,1.6401,1.64,1.6382,1.6404,1.6387,1.6403,1.6388,1.6396,1.6367,1.6363,1.6366,1.6368,1.6363,1.6363,1.6357,1.6361,1.6375,1.6375,1.6376,1.6376,0,1.6389,1.6402,1.6372,1.6378,1.6379,1.6357,1.6361,1.6345,1.6352,1.633,1.6326,1.6336,1.6319,1.633,1.6311,1.6317,1.6279,1.6287,1.6281,1.6283,1.6253,1.6256,1.6156,1.6144,1.6237,1.6236,1.6235,0,1.6342,1.6321,1.6326,1.6317,1.6317,1.6301,1.6294,1.6311,1.6302,1.6298,1.6281,1.6267,1.6256,1.6227,1.6232,1.6219,1.6227,1.6193,1.6225,1.6221,1.6226,1.6227,1.6225,1.6186,1.6185,1.6184,1.6183,0,1.6257,1.6265,1.6254,1.6246,1.6236,1.623,1.6225,1.6216,1.6234,1.6222,1.6207,1.6198,1.6182,1.6166,1.6156,1.6155,1.6171,1.6174,1.6166,1.6161,1.6158,1.6159,1.6263,1.6175,1.6176,1.6177,1.6177,1.6178,1.6194,1.6177,1.6179,1.6166,1.6165,1.616,1.6146,1.6152,1.6139,1.6128,1.6139,1.612,1.6118,1.6105,1.6103,1.6087,1.6101,1.609,1.6087,1.6084,1.608,1.6161,1.6085,1.6085,1.6086,1.6086,1.6086,0,1.611,1.6113,1.6101,1.6095,1.6085,1.6104,1.6101,1.609,1.6074,1.6071,1.6061,1.6043,1.6029,1.6034,1.6022,1.6008,1.6016,1.6004,1.6005,1.6005,1.6068,1.6076,1.5999,1.5999,1.5999,1.5999,1.5999,1.5999,1.6065,1.6039,1.6047,1.602,1.6023,1.6006,1.6002,1.5998,1.5997,1.5976,1.5966,1.597,1.597,1.5958,1.5946,1.5948,1.5942,1.5928,1.5932,1.5992,1.6,1.6008,1.6016,1.5927,1.5927,1.587,1.5869,1.5869]}]]